Regional Weather Roundup
Issued by NWS

Home | Current Version | Previous Version | Text Only | Print | Product List | Glossary On
Versions: 1 2 3 4 5 6 7 8 9 10 11 12 13 14 15 16 17 18 19 20 21 22 23 24 25 26 27 28 29 30 31 32 33 34 35 36 37 38 39 40 41 42 43 44 45 46 47 48 49 50
000
ASUS44 KFWD 271115
RWRTX
NATIONAL WEATHER SERVICE FORT WORTH TX
500 AM CST FRI FEB 27 2015

NOTE: "FAIR" INDICATES FEW OR NO CLOUDS BELOW 12,000 FEET WITH NO
SIGNIFICANT WEATHER AND/OR OBSTRUCTIONS TO VISIBILITY.

TXZ118-119-271200-
DALLAS/FORT WORTH METROPLEX

CITY           SKY/WX    TMP DP  RH WIND       PRES   REMARKS
DFW AIRPORT    MOCLDY    26  11  52 NE10      30.42R WCI  16
DALLAS LOVE    MOCLDY    27  11  51 N6        30.43R WCI  20
FTW MEACHAM    MOCLDY    28  11  48 NE9       30.41R WCI  19
DAL-EXECUTIVE  MOCLDY    27  11  51 NE13      30.40R WCI  16
FTW-ALLIANCE   MOCLDY    26   9  48 NE13      30.42R WCI  15
FTW-SPINKS     CLOUDY    28  14  55 NE9       30.40F WCI  19
ARLINGTON      PTCLDY    28  10  46 N10       30.41R WCI  19
GRAND PRAIRIE  CLEAR     28  15  58 N8        30.43R WCI  19
LANCASTER      CLOUDY    28  13  52 NE8       30.43R WCI  20
$$

TXZ091>094-102>105-117-120-121-131>134-271200-
NORTH CENTRAL TEXAS

CITY           SKY/WX    TMP DP  RH WIND       PRES   REMARKS
SHRMAN/DENISON FAIR      25  14  63 NE13      30.44S WCI  13
GAINESVILLE    CLOUDY    25   9  51 NE10      30.46R WCI  14
BOWIE          CLOUDY    24   8  49 NE5G16    30.42S WCI  18
BRIDGEPORT     CLOUDY    26  13  56 NE10      30.45R WCI  16
DECATUR        CLOUDY    26   9  49 NE9       30.41R WCI  16
DENTON         CLOUDY    25  10  53 NE14      30.43R WCI  13
MCKINNEY       CLEAR     25  11  55 N8        30.43R WCI  16
GREENVILLE     CLEAR     27  14  59 N8        30.41F WCI  18
TERRELL        MOCLDY    28  15  58 N8        30.43R WCI  20
WAXAHACHIE     CLOUDY    28  16  61 N9G16     30.40F WCI  19
CLEBURNE       PTCLDY    28  12  50 NE13      30.39S WCI  18
GRANBURY       CLOUDY    30  15  53 NE5       30.41S WCI  25
$$

TXZ083>090-098>101-113>116-127>130-139>142-154-155-271200-
WESTERN NORTH TEXAS

CITY           SKY/WX    TMP DP  RH WIND       PRES   REMARKS
WICHITA FALLS  CLOUDY    24   5  44 NE16      30.44R WCI  11
WF-KICKAPOO    CLOUDY    26   6  43 NE17      30.45S WCI  13
VERNON         CLOUDY    25  -4  27 NE15      30.44F WCI  13
ABILENE        LGT SNOW  24  16  71 NE9       30.34R WCI  14
ABILENE-DYESS  LGT SNOW  23  16  73 NE9       30.33R WCI  13
BRECKENRIDGE   CLOUDY    28  13  52 NE9       30.37S WCI  20
GRAHAM         CLOUDY    26  12  54 NE14      30.37F WCI  15
MINERAL WELLS  CLOUDY    27  11  51 NE14      30.38F WCI  16
STEPHENVILLE   CLOUDY    28  12  51 NE12G17   30.36S WCI  18
COMANCHE       CLOUDY    28  17  63 NE8       30.33S WCI  20
BROWNWOOD      MIX PCPN  28  16  59 E12       30.33R WCI  18
COLEMAN        LGT SNOW  27  21  79 NE14      30.31S WCI  15
BRADY          CLOUDY    28  18  64 NE8       30.28R WCI  20
$$

TXZ143>147-156>162-174-175-271200-
CENTRAL TEXAS

CITY           SKY/WX    TMP DP  RH WIND       PRES   REMARKS
WACO           CLOUDY    29  17  61 NE15      30.38S WCI  18
WACO-MCGREGOR    N/A     30  16  55 NE16      30.37F WCI  19
HILLSBORO      CLOUDY    29  17  60 N9        30.38S WCI  20
CORSICANA      CLOUDY    31  17  56 NE9       30.39F WCI  23
MEXIA          CLOUDY    30  19  62 MISG      30.35F
HEARNE         CLOUDY    34  22  62 NE10      30.35F WCI  26
CAMERON        CLOUDY    33  24  68 N10       30.34S WCI  25
TEMPLE         CLOUDY    30  16  55 NE13      30.33F WCI  20
KILLEEN        CLOUDY    30  19  63 NE14      30.32R WCI  19
KILLEEN-SKYLRK MOCLDY    30  16  55 NE12G17   30.31S WCI  21
FORT HOOD      CLOUDY    30  18  61 NE13      30.32F WCI  20
GATESVILLE     PTCLDY    32  19  59 NE9       30.37S WCI  24
HAMILTON       CLOUDY    30  16  57 NE15      30.33S WCI  19
LAMPASAS       CLOUDY    30  21  67 NE14      30.30F WCI  20
$$

TXZ095>097-106>112-122>126-135>138-148>153-164>167-271200-
EAST TEXAS

CITY           SKY/WX    TMP DP  RH WIND       PRES   REMARKS
PARIS          CLEAR     23  10  58 N8        30.44R WCI  14
SULPHUR SPRNGS CLEAR     26  16  63 N9        30.44S WCI  17
MOUNT PLEASANT CLEAR     27  19  69 NE7       30.44F WCI  20
GILMER         PTCLDY    29  19  67 NE8       30.41F WCI  21
MINEOLA        MOCLDY    30  18  59 NE3       30.41F
TYLER          CLOUDY    31  18  58 NE14      30.37F WCI  21
LONGVIEW       MOCLDY    31  20  63 NE10G18   30.41R WCI  22
MARSHALL       PTCLDY    33  23  66 NE6       30.44S WCI  28
ATHENS         CLOUDY    30  19  64 NE9       30.38R WCI  22
PALESTINE      CLOUDY    33  23  67 N7        30.39S WCI  27
HENDERSON      CLOUDY    32  25  74 NE9       30.39F WCI  24
NACOGDOCHES    CLOUDY    34  25  69 E7        30.38R WCI  28
LUFKIN         CLEAR     34  26  72 NE7       30.36S WCI  28
$$

SUPPLEMENTAL OBSERVATIONS (CENTRAL)

CITY           SKY/WX    TMP DP  RH WIND       PRES   REMARKS
$$

SUPPLEMENTAL OBSERVATIONS (WEST)

CITY           SKY/WX    TMP DP  RH WIND       PRES   REMARKS
$$

SUPPLEMENTAL OBSERVATIONS (EAST)

CITY           SKY/WX    TMP DP  RH WIND       PRES   REMARKS
$$

SUPPLEMENTAL OBSERVATIONS ARE A COLLECTION OF AUTOMATED INSTRUMENTS
THAT ARE MAINTAINED BY A VARIETY OF FEDERAL AND STATE AGENCIES.
CERTAIN ELEMENTS...SUCH AS HUMIDITY VALUES AND SUSTAINED WIND
SPEEDS...MAY BE APPROXIMATED.




USA.gov is the U.S. government's official web portal to all federal, state and local government web resources and services.